Aeroporto :
LOGIN :

Iscrizione | Disclaimer

   EN    FR    IT 

 










Sommario :    VFR   VFR Marginale   IFR   IFR Intensivo   IFR Molto Intensivo
Visibilità : 
Base nubi : 
>= 8 km
>= 3000ft
5 / 8 km
1000 / 3000 ft
1500m / 5 km
500 / 1000 ft
800 / 1500m
200 / 500 ft
< 800m
< 200 ft
Simboli :   Temporali  Nebbia  Neve Forte  Precipitazioni Forti  Vento > 20 kt
SIGMETs :   Varie  Temporali  Ghiacco  Turbolenza  Onda orograficha  Ceneri Vulcaniche






- Altitudine del aeroporto : 388 ft
- Codice IATA : QYR


LFQB - Troyes Barberey

ULTIMO METAR :
  • 271330Z AUTO 22015KT 9999 FEW039 SCT064 OVC074 22/14 Q1016

METARs OBSOLETI :
  • 271300Z AUTO 22014KT 9999 SCT039 BKN048 BKN064 22/14 Q1016
  • 271230Z AUTO 20013KT CAVOK 22/15 Q1016
  • 271200Z AUTO 20013KT CAVOK 22/15 Q1016
  • 271130Z AUTO 19014KT CAVOK 21/14 Q1016
  • 271100Z AUTO 19013KT CAVOK 21/16 Q1016
  • 271030Z AUTO 18010KT CAVOK 19/16 Q1017

TAF N/A



MetMap, La meteo Aeronautica in un colpo d'occhio ! - Copyright ORBIFLY Dicembre 2007 - Disclaimer

ORBIFLY MET'MAP TEAM :

Programmazione e sviluppo : Alexandra Zaïnal
Concezione : Baudouin d'Aumeries
Aiuto per la programmazione : Marc-Olivier Méhu
Supporto tecnico e logistico : Manuel Goepfert
Aiuto per la traduzione : Arnaldo La Scala

Contatto : metmap@orbifly.com




FONTI E CREDITI :

   NOAA